DL7MAP-13 Weather Reports


Display with metric or nautical units.
time (UTC)temp
F
wind
direction
speed
MPH
gust
MPH
rain 1hr
in
rain 24hr
in
rain mn
in
humidity
%
barometer
mb
20260503032807 51 0.0 0.0 0.00 0.00 0.00 73 1008.4
20260503031306 52 0.0 0.0 0.00 0.00 0.00 72 1008.6
20260503025807 52 0.0 0.0 0.00 0.00 0.00 71 1008.5
20260503024306 52 0.0 0.0 0.00 0.00 0.00 73 1008.6
20260503022806 51 0.0 0.0 0.00 0.00 0.00 73 1008.7
20260503021307 51 0.0 0.0 0.00 0.00 0.00 73 1008.8
20260503015806 51 0.0 0.0 0.00 0.00 0.00 74 1008.9
20260503014307 52 0.0 0.0 0.00 0.00 0.00 72 1008.8
20260503012806 52 0.0 0.0 0.00 0.00 0.00 70 1008.5
20260503011306 52 0.0 0.0 0.00 0.00 0.00 70 1009.1
20260503005807 53 0.0 0.0 0.00 0.00 0.00 68 1009.1
20260503004306 54 0.0 0.0 0.00 0.00 0.00 68 1009.2
20260503002806 54 0.0 0.0 0.00 0.00 0.00 69 1009.2
20260503001306 54 0.0 0.0 0.00 0.00 0.00 67 1009.3
20260502235806 55 0.0 0.0 0.00 0.00 0.00 65 1009.4
20260502234306 56 0.0 0.0 0.00 0.00 0.00 64 1009.7
20260502232807 56 0.0 0.0 0.00 0.00 0.00 65 1009.6
20260502231306 55 0.0 0.0 0.00 0.00 0.00 67 1009.8
20260502225806 56 0.0 0.0 0.00 0.00 0.00 64 1010.0
20260502224306 56 0.0 0.0 0.00 0.00 0.00 65 1010.0
20260502222807 56 0.0 0.0 0.00 0.00 0.00 65 1010.1
20260502221306 57 0.0 0.0 0.00 0.00 0.00 63 1010.2
20260502215806 57 0.0 0.0 0.00 0.00 0.00 61 1010.2
20260502214306 60 0.0 0.0 0.00 0.00 0.00 56 1010.3
20260502212807 60 0.0 0.0 0.00 0.00 0.00 55 1010.4
20260502211307 60 0.0 0.0 0.00 0.00 0.00 54 1010.5
20260502205806 62 0.0 0.0 0.00 0.00 0.00 51 1010.7
20260502204306 64 0.0 0.0 0.00 0.00 0.00 47 1010.7
20260502202807 64 0.0 0.0 0.00 0.00 0.00 46 1010.2
20260502201306 65 0.0 0.0 0.00 0.00 0.00 45 1010.9
20260502195806 66 0.0 0.0 0.00 0.00 0.00 43 1011.0
20260502194307 68 0.0 0.0 0.00 0.00 0.00 40 1010.8
20260502192806 70 0.0 0.0 0.00 0.00 0.00 37 1011.1
20260502191307 72 0.0 0.0 0.00 0.00 0.00 34 1011.3
20260502185807 73 0.0 0.0 0.00 0.00 0.00 33 1010.9
20260502184307 73 0.0 0.0 0.00 0.00 0.00 32 1011.0
20260502182807 74 0.0 0.0 0.00 0.00 0.00 31 1010.5
20260502181306 75 0.0 0.0 0.00 0.00 0.00 30 1011.1
20260502164306 79 0.0 0.0 0.00 0.00 0.00 26 1011.1
20260502162807 79 0.0 0.0 0.00 0.00 0.00 26 1011.7
20260502161307 79 0.0 0.0 0.00 0.00 0.00 26 1011.0
20260502151307 80 0.0 0.0 0.00 0.00 0.00 26 1012.1
20260502122806 78 0.0 0.0 0.00 0.00 0.00 29 1016.2
20260502121307 78 0.0 0.0 0.00 0.00 0.00 30 1015.1
20260502115807 77 0.0 0.0 0.00 0.00 0.00 30 1016.2
20260502114307 76 0.0 0.0 0.00 0.00 0.00 30 1014.9
20260502112807 76 0.0 0.0 0.00 0.00 0.00 32 1016.0
20260502111306 76 0.0 0.0 0.00 0.00 0.00 32 1016.1
20260502105806 75 0.0 0.0 0.00 0.00 0.00 33 1015.6
20260502104306 75 0.0 0.0 0.00 0.00 0.00 33 1016.2
20260502102807 75 0.0 0.0 0.00 0.00 0.00 33 1016.4
20260502101306 74 0.0 0.0 0.00 0.00 0.00 34 1016.8
20260502091307 72 0.0 0.0 0.00 0.00 0.00 39 1016.6
20260502071306 66 0.0 0.0 0.00 0.00 0.00 49 1017.6
20260502065807 65 0.0 0.0 0.00 0.00 0.00 52 1018.8
20260502064306 64 0.0 0.0 0.00 0.00 0.00 54 1018.1
20260502062807 62 0.0 0.0 0.00 0.00 0.00 55 1017.8
20260502061306 61 0.0 0.0 0.00 0.00 0.00 59 1018.3
20260502055806 59 0.0 0.0 0.00 0.00 0.00 64 1018.7
20260502054307 56 0.0 0.0 0.00 0.00 0.00 68 1018.8
20260502052807 55 0.0 0.0 0.00 0.00 0.00 71 1018.9
20260502051307 54 0.0 0.0 0.00 0.00 0.00 73 1018.7
20260502045806 53 0.0 0.0 0.00 0.00 0.00 77 1018.9
20260502044307 51 0.0 0.0 0.00 0.00 0.00 81 1019.0
20260502042807 49 0.0 0.0 0.00 0.00 0.00 84 1018.6
20260502041306 45 0.0 0.0 0.00 0.00 0.00 85 1018.7
20260502035806 44 0.0 0.0 0.00 0.00 0.00 86 1018.5
20260502034307 42 0.0 0.0 0.00 0.00 0.00 86 1018.5